SCOUT B DEB, 28800

Orbit data source: Space-Track

SCOUT B DEB, 28800 is space debris in LEO originally from a launch on Tue, 10 Aug 1965 UTC launched from the Wallops Island (WLPIS). Debris objects in space refer to the collection of defunct objects orbiting the Earth. Examples of debris include non-operational satellites, rocket bodies, and fragments generated from explosions, collisions, or faulty payload assembly.

Loading next visibility...
Identifier
28800, 1965-063K
Orbit
LEO
Last TLE update
11 months ago
Origin
Manufacturer
Unknown
Mission
Spacecraft
Bus & Motor
Unknown
Mass
Unknown
Launch date (UTC)
1965-08-10 (60 years ago)
Launch vehicle
Unknown
Launch site
Wallops Island (WLPIS)
Object type
Payload
Rocket body
Debris
Shape & HBR
Unknown
Radar Cross Section
Small (<0.1 m²)

Expand to show TLE details & history

TLE from 11 months ago
0 SCOUT B DEB
1 28800U 65063K   24172.47078796  .00000408  00000-0  21853-2 0  9995
2 28800  69.1961 210.3652 0766932  10.0137  49.4534 12.03755512865072
Epoch: 2024-06-20T11:17Z
Definitive object data (Epoch: 2024-06-20T11:17:56.079Z)
Latitude
59.16977°
Longitude
171.01925°
Altitude
1,301.891 km
Speed
7.376 km/s
True Right ascension
16h 38m 39s
True Declination
59° 01' 44"
Sunlit
Object was in daylight at TLE epoch
Visualization TLE readout
Latitude
-31.29796°
Longitude
171.13995°
Altitude
1,856.089 km
Speed
6.879 km/s
Apparent Right ascension
15h 00m 53s
Apparent Declination
-38° 52' 26"
Sunlit
Object is in full shadow
Visualization observer readout
Local Sidereal Time
00:34:08
Azimuth
260.149° W
Elevation
-61.83°
Doppler factor
1
Orbital elements
Apogee altitude
2,279.031 km
Perigee altitude
1,045.725 km
Semi-major axis
8,040.515 km
Eccentricity
0.0766932
Inclination
69.1961°
RAAN
210.3652°
Arg. of periapsis
10.0137°
True anomaly
56.55569°
Mean anomaly
49.4534°
Eccentric anomaly
52.96096°
Mean motion
3.01035 °/min
BSTAR
0.0021853
Orbital period
119.59 mins
Loading maneuver chart data...
Loading SW <> Apogee altitude chart data...
Loading historical data...
Loading historical data...
Loading historical data...
Loading historical data...
Loading historical data...
Loading historical data...
Loading historical data...

SCOUT B DEB Visibility forecast

Observer location: undefined°, undefined°

Span
Click to sort rows by Start time (UTC) header in descending order
Start Az.
Max El. time (UTC)
Max El. Az.
Max El.
End time (UTC)
End Az.
13 mins2025-05-09 19:22:40.767Z161.78° S2025-05-09 19:29:40.767Z107.95° ESE27.394°2025-05-09 19:35:40.767Z49.429° ENE
13 mins2025-05-09 21:25:40.767Z229.606° WSW2025-05-09 21:32:40.767Z308.494° NW37.668°2025-05-09 21:38:40.767Z14.435° NNE
13 mins2025-05-10 05:50:40.767Z340.719° N2025-05-10 05:56:40.767Z89.578° E42.578°2025-05-10 06:03:40.767Z146.1° SSE
7 mins2025-05-10 07:55:40.767Z283.782° WNW2025-05-10 07:58:40.767Z253.627° W17.173°2025-05-10 08:02:40.767Z220.589° SW
|